Weather in Getafe

Spain     40°18′24″N   3°43′30″W
temp.,
°C
wind,
m/s
gust,
m/s
humid.,
%
clouds,
%
prec.,
mm/h
press.,
hPa
HPBL,
m
7 march, sun
sun701:00+8e238518 0.1 102047
04:00+7ene348510 0.0 102054
07:00+9ene347753 0.0 1019143
10:00+10ene3469100 0.0 1019466
13:00+12e4364100 0.0 1017828
16:00+13se4359100 0.0 10141076
19:00+11se347170 0.0 1014112
22:00+9sse457820 0.1 1016101
8 march, mon
mon801:00+7sse229039 0.1 101632
04:00+6ese229151 0.0 101531
07:00+4e119425 0.0 101523
10:00+9e11770 0.0 1016308
13:00+12e12553 1.2 1014999
16:00+14ne22431 0.1 10131684
19:00+11ne686033 1.7 1014279
22:00+10ne6966100 0.2 1017462
9 march, tue
tue901:00+7ne7107583 0.3 1018305
04:00+7ne71068100 0.2 1019522
07:00+7ne5874100 0.6 1020472
10:00+7ne677367 0.1 1021455
13:00+9ese236776 0.3 1020685
16:00+11sw125747 0.0 1018835
19:00+10sw236223 0.0 1018111
22:00+8wsw34680 0.0 102248
10 march, wed
wed1001:00+7w44650 0.0 102350
04:00+6nnw23654 0.0 102431
07:00+4ne117419 0.0 102427
10:00+8ne115637 0.0 1025260
13:00+13wsw334718 0.0 1024950
16:00+15wsw44390 0.0 10221148
19:00+12wsw45510 0.0 102397
22:00+9wsw45670 0.0 102683
11 march, thu
thu1101:00+9wsw457346 0.0 102696
04:00+8wsw3474100 0.0 102654
07:00+7wsw3477100 0.0 102641
10:00+10wsw446474 0.0 1026305
13:00+15wsw554985 0.0 1024661
16:00+17sw654356 0.0 1022731
19:00+14wsw585928 0.0 1021166
22:00+12w567335 0.0 102396